User: anonymous
Location: Muenchen
(48.1800°N, 11.5800°E)
Time: 05:10:22
(UTC+02:00)
Language:

Iridium 73 - Orbit

View from above orbital plane
View from above orbital plane
View from above satellite
View from above satellite

Ground track
Ground track

The orbit data is extracted from the following two-line orbital elements,

1 25344U 98032C   14294.43399464  .00000979  00000-0  25629-3 0  8746
2 25344 086.4427 252.5947 0002961 093.7461 056.3245 14.48411326867148
Epoch (UTC): 21 October 2014 10:24:57
Eccentricity: 0.0002961
inclination: 86.4427°
perigee height: 729 km
apogee height: 733 km
right ascension of ascending node: 252.5947°
argument of perigee: 93.7461°
revolutions per day: 14.48411326
mean anomaly at epoch: 56.3245°
orbit number at epoch: 86714

The dashed part of the orbit path shows where the satellite is in the earth's shadow,  

DLR